Météo par heure à Jurkow

Ce jour, 20 Juin, Dimanche

Heure Température Précipitation Vent Pression Humidité
00:00 +18°C° 0 mm 2 m/s 743 mmHg 93%
01:00 +18°C° 0 mm 2 m/s 743 mmHg 94%
02:00 +17°C° 0 mm 2 m/s 743 mmHg 94%
03:00 +17°C° 0 mm 2 m/s 743 mmHg 94%
04:00 +16°C° 0 mm 2 m/s 742 mmHg 93%
05:00 +18°C° 0 mm 3 m/s 742 mmHg 87%
06:00 +19°C° 0 mm 3 m/s 742 mmHg 80%
07:00 +21°C° 0 mm 4 m/s 742 mmHg 75%
08:00 +22°C° 0 mm 4 m/s 743 mmHg 70%
09:00 +25°C° 0 mm 4 m/s 743 mmHg 65%
10:00 +27°C° 0 mm 5 m/s 743 mmHg 60%
11:00 +27°C° 0 mm 5 m/s 742 mmHg 58%
12:00 +28°C° 0 mm 5 m/s 742 mmHg 55%
13:00 +29°C° 0 mm 5 m/s 742 mmHg 53%
14:00 +29°C° 0 mm 4 m/s 742 mmHg 54%
15:00 +29°C° 0 mm 4 m/s 741 mmHg 54%
16:00 +29°C° 0 mm 4 m/s 741 mmHg 55%
17:00 +27°C° 0 mm 4 m/s 741 mmHg 63%
18:00 +26°C° 0 mm 4 m/s 740 mmHg 71%
19:00 +25°C° 0 mm 3 m/s 740 mmHg 80%
20:00 +22°C° 0 mm 3 m/s 740 mmHg 84%
21:00 +21°C° 0 mm 2 m/s 740 mmHg 88%
22:00 +19°C° 0 mm 2 m/s 740 mmHg 92%
23:00 +19°C° 0 mm 2 m/s 740 mmHg 92%

Demain, 21 Juin, Lundi

Heure Température Précipitation Vent Pression Humidité
00:00 +19°C° 0 mm 2 m/s 740 mmHg 93%
01:00 +18°C° 0 mm 2 m/s 739 mmHg 93%
02:00 +18°C° 0 mm 2 m/s 739 mmHg 94%
03:00 +18°C° 0 mm 2 m/s 739 mmHg 95%
04:00 +18°C° 0 mm 2 m/s 739 mmHg 96%
05:00 +19°C° 0 mm 3 m/s 739 mmHg 90%
06:00 +21°C° 0 mm 3 m/s 739 mmHg 85%
07:00 +22°C° 0 mm 4 m/s 739 mmHg 79%
08:00 +25°C° 0 mm 4 m/s 739 mmHg 74%
09:00 +26°C° 0 mm 4 m/s 739 mmHg 68%
10:00 +27°C° 0 mm 4 m/s 739 mmHg 63%
11:00 +28°C° 0 mm 3 m/s 739 mmHg 60%
12:00 +29°C° 0 mm 3 m/s 738 mmHg 57%
13:00 +30°C° 0 mm 2 m/s 738 mmHg 54%
14:00 +30°C° 0 mm 2 m/s 738 mmHg 53%
15:00 +30°C° 0 mm 2 m/s 738 mmHg 53%
16:00 +30°C° 0 mm 2 m/s 738 mmHg 52%
17:00 +29°C° 0 mm 2 m/s 738 mmHg 60%
18:00 +27°C° 0 mm 2 m/s 738 mmHg 68%
19:00 +26°C° 0 mm 2 m/s 737 mmHg 76%
20:00 +25°C° 0.1 mm 2 m/s 738 mmHg 80%
21:00 +23°C° 0.1 mm 2 m/s 738 mmHg 84%
22:00 +22°C° 0.1 mm 1 m/s 738 mmHg 89%
23:00 +22°C° 0.1 mm 1 m/s 738 mmHg 90%

Après-demain, 22 Juin, Mardi

Heure Température Précipitation Vent Pression Humidité
00:00 +21°C° 0.1 mm 1 m/s 738 mmHg 90%
01:00 +21°C° 0.1 mm 1 m/s 738 mmHg 91%
02:00 +21°C° 0 mm 1 m/s 738 mmHg 92%
03:00 +20°C° 0 mm 1 m/s 738 mmHg 92%
04:00 +20°C° 0 mm 1 m/s 738 mmHg 93%
05:00 +22°C° 0 mm 1 m/s 739 mmHg 89%
06:00 +23°C° 0 mm 1 m/s 739 mmHg 85%
07:00 +24°C° 0 mm 1 m/s 739 mmHg 82%
08:00 +26°C° 0 mm 1 m/s 739 mmHg 76%
09:00 +27°C° 0 mm 1 m/s 740 mmHg 70%
10:00 +29°C° 0 mm 1 m/s 740 mmHg 65%
11:00 +30°C° 0 mm 1 m/s 740 mmHg 61%
12:00 +31°C° 0 mm 1 m/s 740 mmHg 57%
13:00 +31°C° 0 mm 1 m/s 740 mmHg 54%
14:00 +31°C° 0.3 mm 1 m/s 740 mmHg 56%
15:00 +31°C° 0.3 mm 2 m/s 740 mmHg 57%
16:00 +30°C° 0.3 mm 2 m/s 740 mmHg 59%
17:00 +27°C° 3.2 mm 3 m/s 740 mmHg 69%
18:00 +25°C° 3.2 mm 3 m/s 740 mmHg 79%
19:00 +21°C° 3.2 mm 3 m/s 740 mmHg 89%
20:00 +21°C° 0.4 mm 3 m/s 740 mmHg 90%
21:00 +20°C° 0.4 mm 2 m/s 741 mmHg 90%
22:00 +20°C° 0.4 mm 2 m/s 741 mmHg 91%
23:00 +21°C° 0 mm 1 m/s 741 mmHg 91%

23 Juin, Mercredi

Heure Température Précipitation Vent Pression Humidité
00:00 +20°C° 0 mm 1 m/s 741 mmHg 91%
01:00 +20°C° 0 mm 1 m/s 741 mmHg 91%
02:00 +20°C° 0 mm 1 m/s 741 mmHg 92%
03:00 +18°C° 0 mm 0 m/s 741 mmHg 92%
04:00 +18°C° 0 mm 0 m/s 742 mmHg 92%
05:00 +19°C° 0 mm 0 m/s 742 mmHg 88%
06:00 +23°C° 0 mm 1 m/s 742 mmHg 85%
07:00 +24°C° 0 mm 1 m/s 743 mmHg 81%
08:00 +26°C° 0 mm 1 m/s 743 mmHg 75%
09:00 +27°C° 0 mm 1 m/s 743 mmHg 70%
10:00 +29°C° 0 mm 2 m/s 743 mmHg 65%
11:00 +29°C° 0 mm 1 m/s 743 mmHg 62%
12:00 +30°C° 0 mm 1 m/s 743 mmHg 59%
13:00 +31°C° 0 mm 1 m/s 743 mmHg 55%
14:00 +31°C° 0 mm 1 m/s 743 mmHg 55%
15:00 +32°C° 0 mm 1 m/s 743 mmHg 54%
16:00 +32°C° 0 mm 1 m/s 743 mmHg 53%
17:00 +31°C° 0.1 mm 1 m/s 743 mmHg 59%
18:00 +29°C° 0.1 mm 1 m/s 743 mmHg 65%
19:00 +28°C° 0.1 mm 1 m/s 743 mmHg 71%
20:00 +26°C° 0.9 mm 1 m/s 743 mmHg 77%
21:00 +25°C° 0.9 mm 1 m/s 743 mmHg 82%
22:00 +21°C° 0.9 mm 0 m/s 744 mmHg 87%
23:00 +21°C° 0 mm 0 m/s 744 mmHg 88%

24 Juin, Jeudi

Heure Température Précipitation Vent Pression Humidité
00:00 +21°C° 0 mm 0 m/s 744 mmHg 88%
01:00 +20°C° 0 mm 0 m/s 744 mmHg 89%
02:00 +20°C° 0 mm 0 m/s 744 mmHg 89%
03:00 +22°C° 0 mm 1 m/s 744 mmHg 90%
04:00 +22°C° 0 mm 1 m/s 744 mmHg 91%
05:00 +23°C° 0 mm 1 m/s 744 mmHg 87%
06:00 +22°C° 0 mm 0 m/s 744 mmHg 84%
07:00 +24°C° 0 mm 0 m/s 744 mmHg 80%
08:00 +27°C° 0 mm 1 m/s 744 mmHg 74%
09:00 +29°C° 0 mm 1 m/s 744 mmHg 69%
10:00 +30°C° 0 mm 2 m/s 744 mmHg 63%
11:00 +31°C° 0 mm 2 m/s 743 mmHg 60%
12:00 +32°C° 0 mm 2 m/s 743 mmHg 57%
13:00 +32°C° 0 mm 2 m/s 743 mmHg 54%
14:00 +34°C° 0 mm 3 m/s 742 mmHg 54%
15:00 +34°C° 0 mm 3 m/s 742 mmHg 54%
16:00 +34°C° 0 mm 3 m/s 742 mmHg 54%
17:00 +31°C° 0 mm 3 m/s 741 mmHg 60%
18:00 +30°C° 0 mm 3 m/s 740 mmHg 67%
19:00 +28°C° 0 mm 3 m/s 740 mmHg 74%
20:00 +27°C° 0.5 mm 3 m/s 740 mmHg 79%
21:00 +25°C° 0.5 mm 3 m/s 740 mmHg 83%
22:00 +22°C° 0.5 mm 3 m/s 740 mmHg 88%
23:00 +22°C° 0.2 mm 3 m/s 740 mmHg 90%

25 Juin, Vendredi

Heure Température Précipitation Vent Pression Humidité
00:00 +21°C° 0.2 mm 3 m/s 740 mmHg 92%
01:00 +21°C° 0.2 mm 3 m/s 740 mmHg 94%
02:00 +20°C° 0 mm 2 m/s 740 mmHg 95%
03:00 +21°C° 0 mm 1 m/s 740 mmHg 96%
04:00 +21°C° 0 mm 1 m/s 740 mmHg 96%
05:00 +21°C° 0 mm 2 m/s 740 mmHg 92%
06:00 +22°C° 0 mm 3 m/s 740 mmHg 88%
07:00 +25°C° 0 mm 4 m/s 740 mmHg 84%
08:00 +25°C° 0 mm 4 m/s 741 mmHg 79%
09:00 +26°C° 0 mm 5 m/s 741 mmHg 74%
10:00 +26°C° 0 mm 6 m/s 741 mmHg 69%
11:00 +27°C° 0 mm 5 m/s 741 mmHg 65%
12:00 +28°C° 0 mm 5 m/s 741 mmHg 61%
13:00 +28°C° 0 mm 5 m/s 741 mmHg 57%
14:00 +28°C° 0 mm 5 m/s 741 mmHg 56%
15:00 +28°C° 0 mm 5 m/s 741 mmHg 55%
16:00 +28°C° 0 mm 5 m/s 741 mmHg 54%
17:00 +27°C° 0 mm 4 m/s 741 mmHg 60%
18:00 +25°C° 0 mm 3 m/s 741 mmHg 66%
19:00 +24°C° 0 mm 3 m/s 741 mmHg 73%
20:00 +23°C° 0 mm 2 m/s 741 mmHg 76%
21:00 +20°C° 0 mm 2 m/s 742 mmHg 79%
22:00 +19°C° 0 mm 2 m/s 742 mmHg 82%
23:00 +18°C° 0 mm 2 m/s 742 mmHg 85%
Voir plus

Nous avons besoin de votre consentement

Meteoprog et ses fournisseurs de services peuvent stocker et accéder à des données personnelles telles que des cookies, des identifiants d'appareils ou d'autres technologies similaires sur votre appareil et traiter ces données pour personnaliser le contenu et les publicités, ainsi que pour fournir des fonctionnalités de médias sociaux et analyser le trafic.

  • Stocker et/ou accéder à des informations sur votre appareil

    Des cookies, des identifiants d'appareils ou d'autres informations peuvent être stockés ou accessibles sur votre appareil aux fins indiquées ci-dessus.

  • Annonces et contenus personnalisés, mesure des annonces et des contenus, connaissance de l'audience et développement de produits

    Les annonces et le contenu peuvent être personnalisés en fonction d'un profil. D'autres données peuvent être ajoutées pour mieux personnaliser les annonces et le contenu. Les performances des publicités et du contenu peuvent être mesurées. Il est possible d'obtenir des informations sur le public qui a vu les publicités et le contenu. Ces données peuvent être utilisées pour développer ou améliorer l'expérience de l'utilisateur, les systèmes et les logiciels.

En cliquant sur "J'accepte", vous autorisez l'utilisation de cookies, des identifiants d'appareils, des balises web ou d'autres technologies similaires. Vos paramètres peuvent être modifiés dans le navigateur de votre appareil.

Dans certains cas, des intérêts légitimes peuvent être invoqués plutôt qu'un consentement. Vous pouvez en savoir plus à ce sujet dans notre Politique de confidentialité et de cookies.